Year,Month,Day,Hour,Minute,Value (Times are PST for barometer in hPa)
2020,11,30,00,00,1010.36
2020,11,30,00,01,1010.36
2020,11,30,00,02,1010.40
2020,11,30,00,03,1010.30
2020,11,30,00,04,1010.30
2020,11,30,00,05,1010.33
2020,11,30,00,06,1010.33
2020,11,30,00,07,1010.23
2020,11,30,00,08,1010.13
2020,11,30,00,09,1010.16
2020,11,30,00,10,1010.13
2020,11,30,00,11,1010.08
2020,11,30,00,12,1009.89
2020,11,30,00,13,1009.86
2020,11,30,00,14,1009.82
2020,11,30,00,15,1009.79
2020,11,30,00,16,1009.86
2020,11,30,00,17,1009.92
2020,11,30,00,18,1009.92
2020,11,30,00,19,1009.86
2020,11,30,00,20,1009.72
2020,11,30,00,21,1009.72
2020,11,30,00,22,1009.75
2020,11,30,00,23,1009.69
2020,11,30,00,24,1009.69
2020,11,30,00,25,1009.79
2020,11,30,00,26,1009.69
2020,11,30,00,27,1009.69
2020,11,30,00,28,1009.55
2020,11,30,00,29,1009.55
2020,11,30,00,30,1009.55
2020,11,30,00,31,1009.62
2020,11,30,00,32,1009.48
2020,11,30,00,33,1009.45
2020,11,30,00,34,1009.38
2020,11,30,00,35,1009.31
2020,11,30,00,36,1009.42
2020,11,30,00,37,1009.42
2020,11,30,00,38,1009.38
2020,11,30,00,39,1009.21
2020,11,30,00,40,1009.14
2020,11,30,00,41,1009.11
2020,11,30,00,42,1009.18
2020,11,30,00,43,1009.08
2020,11,30,00,44,1008.97
2020,11,30,00,45,1008.77
2020,11,30,00,46,1008.70
2020,11,30,00,47,1008.67
2020,11,30,00,48,1008.77
2020,11,30,00,49,1008.91
2020,11,30,00,50,1009.04
2020,11,30,00,51,1009.03
2020,11,30,00,52,1008.84
2020,11,30,00,53,1008.81
2020,11,30,00,54,1008.70
2020,11,30,00,55,1008.67
2020,11,30,00,56,1008.81
2020,11,30,00,57,1008.77
2020,11,30,00,58,1008.77
2020,11,30,00,59,1008.64
2020,11,30,01,00,1008.64
2020,11,30,01,01,1008.67
2020,11,30,01,02,1008.70
2020,11,30,01,03,1008.60
2020,11,30,01,04,1008.53
2020,11,30,01,05,1008.53
2020,11,30,01,06,1008.53
2020,11,30,01,07,1008.47
2020,11,30,01,08,1008.40
2020,11,30,01,09,1008.37
2020,11,30,01,10,1008.26
2020,11,30,01,11,1008.30
2020,11,30,01,12,1008.47
2020,11,30,01,13,1008.47
2020,11,30,01,14,1008.37
2020,11,30,01,15,1008.47
2020,11,30,01,16,1008.57
2020,11,30,01,17,1008.47
2020,11,30,01,18,1008.37
2020,11,30,01,19,1008.44
2020,11,30,01,20,1008.67
2020,11,30,01,21,1008.64
2020,11,30,01,22,1008.81
2020,11,30,01,23,1008.84
2020,11,30,01,24,1008.74
2020,11,30,01,25,1008.74
2020,11,30,01,26,1008.81
2020,11,30,01,27,1008.81
2020,11,30,01,28,1008.74
2020,11,30,01,29,1008.70
2020,11,30,01,30,1008.64
2020,11,30,01,31,1008.53
2020,11,30,01,32,1008.74
2020,11,30,01,33,1008.74
2020,11,30,01,34,1008.84
2020,11,30,01,35,1008.92
2020,11,30,01,36,1009.08
2020,11,30,01,37,1009.08
2020,11,30,01,38,1009.08
2020,11,30,01,39,1009.11
2020,11,30,01,40,1009.25
2020,11,30,01,41,1009.21
2020,11,30,01,42,1009.18
2020,11,30,01,43,1009.18
2020,11,30,01,44,1009.28
2020,11,30,01,45,1009.25
2020,11,30,01,46,1009.14
2020,11,30,01,47,1009.11
2020,11,30,01,48,1009.11
2020,11,30,01,49,1009.01
2020,11,30,01,50,1009.11
2020,11,30,01,51,1009.14
2020,11,30,01,52,1009.11
2020,11,30,01,53,1009.25
2020,11,30,01,54,1009.35
2020,11,30,01,55,1009.35
2020,11,30,01,56,1009.31
2020,11,30,01,57,1009.31
2020,11,30,01,58,1009.25
2020,11,30,01,59,1009.25
2020,11,30,02,00,1009.28
2020,11,30,02,01,1009.18
2020,11,30,02,02,1009.14
2020,11,30,02,03,1009.14
2020,11,30,02,04,1009.11
2020,11,30,02,05,1009.11
2020,11,30,02,06,1009.10
2020,11,30,02,07,1008.87
2020,11,30,02,08,1008.84
2020,11,30,02,09,1008.84
2020,11,30,02,10,1008.84
2020,11,30,02,11,1008.97
2020,11,30,02,12,1008.84
2020,11,30,02,13,1008.81
2020,11,30,02,14,1008.74
2020,11,30,02,15,1008.67
2020,11,30,02,16,1008.64
2020,11,30,02,17,1008.60
2020,11,30,02,18,1008.57
2020,11,30,02,19,1008.57
2020,11,30,02,20,1008.57
2020,11,30,02,21,1008.60
2020,11,30,02,22,1008.50
2020,11,30,02,23,1008.47
2020,11,30,02,24,1008.37
2020,11,30,02,25,1008.30
2020,11,30,02,26,1008.33
2020,11,30,02,27,1008.37
2020,11,30,02,28,1008.30
2020,11,30,02,29,1008.23
2020,11,30,02,30,1008.20
2020,11,30,02,31,1008.30
2020,11,30,02,32,1008.30
2020,11,30,02,33,1008.26
2020,11,30,02,34,1008.26
2020,11,30,02,35,1008.20
2020,11,30,02,36,1008.23
2020,11,30,02,37,1008.30
2020,11,30,02,38,1008.33
2020,11,30,02,39,1008.37
2020,11,30,02,40,1008.40
2020,11,30,02,41,1008.37
2020,11,30,02,42,1008.33
2020,11,30,02,43,1008.40
2020,11,30,02,44,1008.30
2020,11,30,02,45,1008.37
2020,11,30,02,46,1008.26
2020,11,30,02,47,1008.30
2020,11,30,02,48,1008.20
2020,11,30,02,49,1008.30
2020,11,30,02,50,1008.37
2020,11,30,02,51,1008.40
2020,11,30,02,52,1008.37
2020,11,30,02,53,1008.47
2020,11,30,02,54,1008.47
2020,11,30,02,55,1008.50
2020,11,30,02,56,1008.43
2020,11,30,02,57,1008.47
2020,11,30,02,58,1008.43
2020,11,30,02,59,1008.47
2020,11,30,03,00,1008.53
2020,11,30,03,01,1008.53
2020,11,30,03,02,1008.57
2020,11,30,03,03,1008.57
2020,11,30,03,04,1008.64
2020,11,30,03,05,1008.70
2020,11,30,03,06,1008.67
2020,11,30,03,07,1008.77
2020,11,30,03,08,1008.77
2020,11,30,03,09,1008.74
2020,11,30,03,10,1008.74
2020,11,30,03,11,1008.77
2020,11,30,03,12,1008.77
2020,11,30,03,13,1008.67
2020,11,30,03,14,1008.67
2020,11,30,03,15,1008.77
2020,11,30,03,16,1008.67
2020,11,30,03,17,1008.53
2020,11,30,03,18,1008.50
2020,11,30,03,19,1008.47
2020,11,30,03,20,1008.47
2020,11,30,03,21,1008.37
2020,11,30,03,22,1008.16
2020,11,30,03,23,1008.06
2020,11,30,03,24,1007.75
2020,11,30,03,25,1007.59
2020,11,30,03,26,1007.51
2020,11,30,03,27,1007.35
2020,11,30,03,28,1007.28
2020,11,30,03,29,1007.11
2020,11,30,03,30,1006.98
2020,11,30,03,31,1006.98
2020,11,30,03,32,1007.04
2020,11,30,03,33,1007.08
2020,11,30,03,34,1007.01
2020,11,30,03,35,1007.15
2020,11,30,03,36,1007.08
2020,11,30,03,37,1007.18
2020,11,30,03,38,1007.32
2020,11,30,03,39,1007.35
2020,11,30,03,40,1007.35
2020,11,30,03,41,1007.45
2020,11,30,03,42,1007.42
2020,11,30,03,43,1007.48
2020,11,30,03,44,1007.52
2020,11,30,03,45,1007.62
2020,11,30,03,46,1007.65
2020,11,30,03,47,1007.62
2020,11,30,03,48,1007.59
2020,11,30,03,49,1007.52
2020,11,30,03,50,1007.62
2020,11,30,03,51,1007.59
2020,11,30,03,52,1007.55
2020,11,30,03,53,1007.48
2020,11,30,03,54,1007.42
2020,11,30,03,55,1007.48
2020,11,30,03,56,1007.42
2020,11,30,03,57,1007.38
2020,11,30,03,58,1007.35
2020,11,30,03,59,1007.35
2020,11,30,04,00,1007.28
2020,11,30,04,01,1007.35
2020,11,30,04,02,1007.42
2020,11,30,04,03,1007.45
2020,11,30,04,04,1007.42
2020,11,30,04,05,1007.48
2020,11,30,04,06,1007.48
2020,11,30,04,07,1007.52
2020,11,30,04,08,1007.59
2020,11,30,04,09,1007.59
2020,11,30,04,10,1007.62
2020,11,30,04,11,1007.55
2020,11,30,04,12,1007.48
2020,11,30,04,13,1007.45
2020,11,30,04,14,1007.45
2020,11,30,04,15,1007.38
2020,11,30,04,16,1007.42
2020,11,30,04,17,1007.48
2020,11,30,04,18,1007.52
2020,11,30,04,19,1007.62
2020,11,30,04,20,1007.55
2020,11,30,04,21,1007.55
2020,11,30,04,22,1007.59
2020,11,30,04,23,1007.45
2020,11,30,04,24,1007.52
2020,11,30,04,25,1007.55
2020,11,30,04,26,1007.52
2020,11,30,04,27,1007.42
2020,11,30,04,28,1007.48
2020,11,30,04,29,1007.48
2020,11,30,04,30,1007.48
2020,11,30,04,31,1007.45
2020,11,30,04,32,1007.42
2020,11,30,04,33,1007.35
2020,11,30,04,34,1007.38
2020,11,30,04,35,1007.32
2020,11,30,04,36,1007.35
2020,11,30,04,37,1007.35
2020,11,30,04,38,1007.28
2020,11,30,04,39,1007.25
2020,11,30,04,40,1007.25
2020,11,30,04,41,1007.28
2020,11,30,04,42,1007.38
2020,11,30,04,43,1007.35
2020,11,30,04,44,1007.32
2020,11,30,04,45,1007.32
2020,11,30,04,46,1007.28
2020,11,30,04,47,1007.28
2020,11,30,04,48,1007.38
2020,11,30,04,49,1007.42
2020,11,30,04,50,1007.42
2020,11,30,04,51,1007.45
2020,11,30,04,52,1007.48
2020,11,30,04,53,1007.55
2020,11,30,04,54,1007.78
2020,11,30,04,55,1007.55
2020,11,30,04,56,1007.42
2020,11,30,04,57,1007.38
2020,11,30,04,58,1007.35
2020,11,30,04,59,1007.42
2020,11,30,05,00,1007.48
2020,11,30,05,01,1007.59
2020,11,30,05,02,1007.55
2020,11,30,05,03,1007.55
2020,11,30,05,04,1007.55
2020,11,30,05,05,1007.45
2020,11,30,05,06,1007.48
2020,11,30,05,07,1007.52
2020,11,30,05,08,1007.55
2020,11,30,05,09,1007.52
2020,11,30,05,10,1007.52
2020,11,30,05,11,1007.55
2020,11,30,05,12,1007.59
2020,11,30,05,13,1007.65
2020,11,30,05,14,1007.59
2020,11,30,05,15,1007.59
2020,11,30,05,16,1007.59
2020,11,30,05,17,1007.65
2020,11,30,05,18,1007.62
2020,11,30,05,19,1007.55
2020,11,30,05,20,1007.59
2020,11,30,05,21,1007.55
2020,11,30,05,22,1007.62
2020,11,30,05,23,1007.65
2020,11,30,05,24,1007.72
2020,11,30,05,25,1007.72
2020,11,30,05,26,1007.82
2020,11,30,05,27,1007.79
2020,11,30,05,28,1007.65
2020,11,30,05,29,1007.72
2020,11,30,05,30,1007.65
2020,11,30,05,31,1007.69
2020,11,30,05,32,1007.65
2020,11,30,05,33,1007.72
2020,11,30,05,34,1007.72
2020,11,30,05,35,1007.76
2020,11,30,05,36,1007.76
2020,11,30,05,37,1007.76
2020,11,30,05,38,1007.76
2020,11,30,05,39,1007.86
2020,11,30,05,40,1007.79
2020,11,30,05,41,1007.86
2020,11,30,05,42,1007.79
2020,11,30,05,43,1007.79
2020,11,30,05,44,1007.89
2020,11,30,05,45,1007.82
2020,11,30,05,46,1007.86
2020,11,30,05,47,1007.76
2020,11,30,05,48,1007.79
2020,11,30,05,49,1007.86
2020,11,30,05,50,1007.86
2020,11,30,05,51,1007.82
2020,11,30,05,52,1007.76
2020,11,30,05,53,1007.82
2020,11,30,05,54,1007.86
2020,11,30,05,55,1007.86
2020,11,30,05,56,1007.99
2020,11,30,05,57,1008.06
2020,11,30,05,58,1008.09
2020,11,30,05,59,1008.13
2020,11,30,06,00,1008.20
2020,11,30,06,01,1008.26
2020,11,30,06,02,1008.23
2020,11,30,06,03,1008.23
2020,11,30,06,04,1008.26
2020,11,30,06,05,1008.20
2020,11,30,06,06,1008.23
2020,11,30,06,07,1008.20
2020,11,30,06,08,1008.30
2020,11,30,06,09,1008.30
2020,11,30,06,10,1008.26
2020,11,30,06,11,1008.26
2020,11,30,06,12,1008.23
2020,11,30,06,13,1008.23
2020,11,30,06,14,1008.33
2020,11,30,06,15,1008.33
2020,11,30,06,16,1008.30
2020,11,30,06,17,1008.33
2020,11,30,06,18,1008.37
2020,11,30,06,19,1008.33
2020,11,30,06,20,1008.33
2020,11,30,06,21,1008.37
2020,11,30,06,22,1008.43
2020,11,30,06,23,1008.47
2020,11,30,06,24,1008.53
2020,11,30,06,25,1008.64
2020,11,30,06,26,1008.70
2020,11,30,06,27,1008.85
2020,11,30,06,28,1009.01
2020,11,30,06,29,1009.04
2020,11,30,06,30,1009.18
2020,11,30,06,31,1009.21
2020,11,30,06,32,1009.35
2020,11,30,06,33,1009.38
2020,11,30,06,34,1009.31
2020,11,30,06,35,1009.42
2020,11,30,06,36,1009.35
2020,11,30,06,37,1009.28
2020,11,30,06,38,1009.65
2020,11,30,06,39,1009.72
2020,11,30,06,40,1009.58
2020,11,30,06,41,1009.58
2020,11,30,06,42,1009.72
2020,11,30,06,43,1009.58
2020,11,30,06,44,1009.62
2020,11,30,06,45,1009.58
2020,11,30,06,46,1009.45
2020,11,30,06,47,1009.52
2020,11,30,06,48,1009.45
2020,11,30,06,49,1009.55
2020,11,30,06,50,1009.52
2020,11,30,06,51,1009.55
2020,11,30,06,52,1009.65
2020,11,30,06,53,1009.72
2020,11,30,06,54,1009.65
2020,11,30,06,55,1009.79
2020,11,30,06,56,1009.79
2020,11,30,06,57,1009.86
2020,11,30,06,58,1009.82
2020,11,30,06,59,1009.92
2020,11,30,07,00,1010.02
2020,11,30,07,01,1009.92
2020,11,30,07,02,1010.16
2020,11,30,07,03,1010.02
2020,11,30,07,04,1010.01
2020,11,30,07,05,1009.86
2020,11,30,07,06,1010.09
2020,11,30,07,07,1010.06
2020,11,30,07,08,1010.02
2020,11,30,07,09,1010.29
2020,11,30,07,10,1010.06
2020,11,30,07,11,1010.13
2020,11,30,07,12,1010.19
2020,11,30,07,13,1010.23
2020,11,30,07,14,1010.23
2020,11,30,07,15,1010.23
2020,11,30,07,16,1010.26
2020,11,30,07,17,1010.30
2020,11,30,07,18,1010.36
2020,11,30,07,19,1010.30
2020,11,30,07,20,1010.36
2020,11,30,07,21,1010.40
2020,11,30,07,22,1010.46
2020,11,30,07,23,1010.36
2020,11,30,07,24,1010.46
2020,11,30,07,25,1010.40
2020,11,30,07,26,1010.40
2020,11,30,07,27,1010.50
2020,11,30,07,28,1010.40
2020,11,30,07,29,1010.36
2020,11,30,07,30,1010.57
2020,11,30,07,31,1010.46
2020,11,30,07,32,1010.50
2020,11,30,07,33,1010.63
2020,11,30,07,34,1010.63
2020,11,30,07,35,1010.67
2020,11,30,07,36,1010.58
2020,11,30,07,37,1010.74
2020,11,30,07,38,1010.60
2020,11,30,07,39,1010.77
2020,11,30,07,40,1010.63
2020,11,30,07,41,1010.83
2020,11,30,07,42,1010.67
2020,11,30,07,43,1010.70
2020,11,30,07,44,1010.60
2020,11,30,07,45,1010.67
2020,11,30,07,46,1010.61
2020,11,30,07,47,1010.83
2020,11,30,07,48,1010.63
2020,11,30,07,49,1010.74
2020,11,30,07,50,1010.80
2020,11,30,07,51,1010.77
2020,11,30,07,52,1010.84
2020,11,30,07,53,1010.80
2020,11,30,07,54,1010.70
2020,11,30,07,55,1010.94
2020,11,30,07,56,1010.94
2020,11,30,07,57,1010.85
2020,11,30,07,58,1011.07
2020,11,30,07,59,1010.87
2020,11,30,08,00,1010.91
2020,11,30,08,01,1010.84
2020,11,30,08,02,1010.85
2020,11,30,08,03,1011.07
2020,11,30,08,04,1011.07
2020,11,30,08,05,1011.21
2020,11,30,08,06,1011.21
2020,11,30,08,07,1011.11
2020,11,30,08,08,1011.08
2020,11,30,08,09,1011.24
2020,11,30,08,10,1011.31
2020,11,30,08,11,1011.35
2020,11,30,08,12,1011.31
2020,11,30,08,13,1011.38
2020,11,30,08,14,1011.22
2020,11,30,08,15,1011.45
2020,11,30,08,16,1011.51
2020,11,30,08,17,1011.48
2020,11,30,08,18,1011.62
2020,11,30,08,19,1011.72
2020,11,30,08,20,1011.72
2020,11,30,08,21,1011.74
2020,11,30,08,22,1011.58
2020,11,30,08,23,1011.68
2020,11,30,08,24,1011.82
2020,11,30,08,25,1011.79
2020,11,30,08,26,1011.93
2020,11,30,08,27,1012.07
2020,11,30,08,28,1011.58
2020,11,30,08,29,1011.82
2020,11,30,08,30,1011.68
2020,11,30,08,31,1011.58
2020,11,30,08,32,1011.58
2020,11,30,08,33,1011.63
2020,11,30,08,34,1011.85
2020,11,30,08,35,1011.55
2020,11,30,08,36,1011.99
2020,11,30,08,37,1011.65
2020,11,30,08,38,1011.72
2020,11,30,08,39,1011.69
2020,11,30,08,40,1011.95
2020,11,30,08,41,1011.85
2020,11,30,08,42,1012.29
2020,11,30,08,43,1011.68
2020,11,30,08,44,1011.85
2020,11,30,08,45,1011.82
2020,11,30,08,46,1011.75
2020,11,30,08,47,1011.82
2020,11,30,08,48,1011.35
2020,11,30,08,49,1011.95
2020,11,30,08,50,1011.62
2020,11,30,08,51,1011.64
2020,11,30,08,52,1012.06
2020,11,30,08,53,1011.92
2020,11,30,08,54,1011.68
2020,11,30,08,55,1012.33
2020,11,30,08,56,1012.29
2020,11,30,08,57,1012.18
2020,11,30,08,58,1012.60
2020,11,30,08,59,1012.50
2020,11,30,09,00,1012.87
2020,11,30,09,01,1012.33
2020,11,30,09,02,1012.84
2020,11,30,09,03,1012.77
2020,11,30,09,04,1012.67
2020,11,30,09,05,1012.67
2020,11,30,09,06,1012.80
2020,11,30,09,07,1012.77
2020,11,30,09,08,1012.77
2020,11,30,09,09,1012.94
2020,11,30,09,10,1012.94
2020,11,30,09,11,1013.00
2020,11,30,09,12,1013.17
2020,11,30,09,13,1013.28
2020,11,30,09,14,1013.34
2020,11,30,09,15,1013.28
2020,11,30,09,16,1013.61
2020,11,30,09,17,1013.61
2020,11,30,09,18,1013.65
2020,11,30,09,19,1013.78
2020,11,30,09,20,1013.89
2020,11,30,09,21,1014.05
2020,11,30,09,22,1014.05
2020,11,30,09,23,1014.19
2020,11,30,09,24,1014.33
2020,11,30,09,25,1014.44
2020,11,30,09,26,1014.70
2020,11,30,09,27,1014.70
2020,11,30,09,28,1014.66
2020,11,30,09,29,1014.90
2020,11,30,09,30,1014.97
2020,11,30,09,31,1015.04
2020,11,30,09,32,1015.07
2020,11,30,09,33,1015.24
2020,11,30,09,34,1015.10
2020,11,30,09,35,1015.17
2020,11,30,09,36,1015.38
2020,11,30,09,37,1015.24
2020,11,30,09,38,1015.34
2020,11,30,09,39,1015.44
2020,11,30,09,40,1015.38
2020,11,30,09,41,1015.34
2020,11,30,09,42,1015.65
2020,11,30,09,43,1015.58
2020,11,30,09,44,1015.61
2020,11,30,09,45,1015.61
2020,11,30,09,46,1015.82
2020,11,30,09,47,1015.75
2020,11,30,09,48,1015.92
2020,11,30,09,49,1015.82
2020,11,30,09,50,1015.85
2020,11,30,09,51,1015.95
2020,11,30,09,52,1016.15
2020,11,30,09,53,1016.12
2020,11,30,09,54,1016.15
2020,11,30,09,55,1016.09
2020,11,30,09,56,1016.29
2020,11,30,09,57,1016.26
2020,11,30,09,58,1016.32
2020,11,30,09,59,1016.19
2020,11,30,10,00,1016.29
2020,11,30,10,01,1016.36
2020,11,30,10,02,1016.39
2020,11,30,10,03,1016.36
2020,11,30,10,04,1016.55
2020,11,30,10,05,1016.36
2020,11,30,10,06,1016.73
2020,11,30,10,07,1016.59
2020,11,30,10,08,1016.59
2020,11,30,10,09,1016.80
2020,11,30,10,10,1016.97
2020,11,30,10,11,1016.87
2020,11,30,10,12,1016.83
2020,11,30,10,13,1016.93
2020,11,30,10,14,1017.20
2020,11,30,10,15,1017.00
2020,11,30,10,16,1017.17
2020,11,30,10,17,1017.20
2020,11,30,10,18,1017.24
2020,11,30,10,19,1017.21
2020,11,30,10,20,1017.37
2020,11,30,10,21,1017.47
2020,11,30,10,22,1017.31
2020,11,30,10,23,1017.44
2020,11,30,10,24,1017.44
2020,11,30,10,25,1017.47
2020,11,30,10,26,1017.58
2020,11,30,10,27,1017.58
2020,11,30,10,28,1017.44
2020,11,30,10,29,1017.54
2020,11,30,10,30,1017.51
2020,11,30,10,31,1017.54
2020,11,30,10,32,1017.58
2020,11,30,10,33,1017.78
2020,11,30,10,34,1017.68
2020,11,30,10,35,1017.68
2020,11,30,10,36,1017.75
2020,11,30,10,37,1017.75
2020,11,30,10,38,1017.88
2020,11,30,10,39,1017.68
2020,11,30,10,40,1017.85
2020,11,30,10,41,1017.95
2020,11,30,10,42,1017.81
2020,11,30,10,43,1017.88
2020,11,30,10,44,1017.98
2020,11,30,10,45,1018.12
2020,11,30,10,46,1018.02
2020,11,30,10,47,1018.12
2020,11,30,10,48,1018.29
2020,11,30,10,49,1018.29
2020,11,30,10,50,1018.22
2020,11,30,10,51,1018.25
2020,11,30,10,52,1018.22
2020,11,30,10,53,1018.25
2020,11,30,10,54,1018.25
2020,11,30,10,55,1018.46
2020,11,30,10,56,1018.36
2020,11,30,10,57,1018.46
2020,11,30,10,58,1018.63
2020,11,30,10,59,1018.66
2020,11,30,11,00,1018.59
2020,11,30,11,01,1018.46
2020,11,30,11,02,1018.63
2020,11,30,11,03,1018.63
2020,11,30,11,04,1018.52
2020,11,30,11,05,1018.63
2020,11,30,11,06,1018.63
2020,11,30,11,07,1018.69
2020,11,30,11,08,1018.66
2020,11,30,11,09,1018.69
2020,11,30,11,10,1018.80
2020,11,30,11,11,1018.93
2020,11,30,11,12,1018.83
2020,11,30,11,13,1018.86
2020,11,30,11,14,1018.73
2020,11,30,11,15,1018.76
2020,11,30,11,16,1018.93
2020,11,30,11,17,1019.00
2020,11,30,11,18,1018.86
2020,11,30,11,19,1018.96
2020,11,30,11,20,1019.13
2020,11,30,11,21,1019.13
2020,11,30,11,22,1019.07
2020,11,30,11,23,1019.27
2020,11,30,11,24,1019.08
2020,11,30,11,25,1019.30
2020,11,30,11,26,1019.13
2020,11,30,11,27,1019.30
2020,11,30,11,28,1019.20
2020,11,30,11,29,1019.34
2020,11,30,11,30,1019.24
2020,11,30,11,31,1019.24
2020,11,30,11,32,1019.24
2020,11,30,11,33,1019.24
2020,11,30,11,34,1019.27
2020,11,30,11,35,1019.34
2020,11,30,11,36,1019.24
2020,11,30,11,37,1019.34
2020,11,30,11,38,1019.37
2020,11,30,11,39,1019.37
2020,11,30,11,40,1019.34
2020,11,30,11,41,1019.57
2020,11,30,11,42,1019.54
2020,11,30,11,43,1019.47
2020,11,30,11,44,1019.47
2020,11,30,11,45,1019.47
2020,11,30,11,46,1019.68
2020,11,30,11,47,1019.61
2020,11,30,11,48,1019.51
2020,11,30,11,49,1019.78
2020,11,30,11,50,1019.81
2020,11,30,11,51,1019.68
2020,11,30,11,52,1019.68
2020,11,30,11,53,1019.68
2020,11,30,11,54,1019.74
2020,11,30,11,55,1019.54
2020,11,30,11,56,1019.88
2020,11,30,11,57,1019.85
2020,11,30,11,58,1019.85
2020,11,30,11,59,1019.81
2020,11,30,12,00,1019.85
2020,11,30,12,01,1019.85
2020,11,30,12,02,1019.85
2020,11,30,12,03,1019.81
2020,11,30,12,04,1019.85
2020,11,30,12,05,1019.95
2020,11,30,12,06,1019.85
2020,11,30,12,07,1019.91
2020,11,30,12,08,1020.05
2020,11,30,12,09,1020.05
2020,11,30,12,10,1020.01
2020,11,30,12,11,1020.05
2020,11,30,12,12,1019.95
2020,11,30,12,13,1020.18
2020,11,30,12,14,1020.08
2020,11,30,12,15,1020.05
2020,11,30,12,16,1020.08
2020,11,30,12,17,1020.08
2020,11,30,12,18,1020.22
2020,11,30,12,19,1020.22
2020,11,30,12,20,1020.12
2020,11,30,12,21,1020.12
2020,11,30,12,22,1020.25
2020,11,30,12,23,1020.15
2020,11,30,12,24,1020.25
2020,11,30,12,25,1020.25
2020,11,30,12,26,1020.39
2020,11,30,12,27,1020.45
2020,11,30,12,28,1020.32
2020,11,30,12,29,1020.45
2020,11,30,12,30,1020.29
2020,11,30,12,31,1020.25
2020,11,30,12,32,1020.45
2020,11,30,12,33,1020.39
2020,11,30,12,34,1020.32
2020,11,30,12,35,1020.49
2020,11,30,12,36,1020.39
2020,11,30,12,37,1020.52
2020,11,30,12,38,1020.56
2020,11,30,12,39,1020.42
2020,11,30,12,40,1020.66
2020,11,30,12,41,1020.45
2020,11,30,12,42,1020.49
2020,11,30,12,43,1020.49
2020,11,30,12,44,1020.52
2020,11,30,12,45,1020.52
2020,11,30,12,46,1020.52
2020,11,30,12,47,1020.56
2020,11,30,12,48,1020.62
2020,11,30,12,49,1020.69
2020,11,30,12,50,1020.83
2020,11,30,12,51,1020.89
2020,11,30,12,52,1021.00
2020,11,30,12,53,1020.96
2020,11,30,12,54,1021.06
2020,11,30,12,55,1021.10
2020,11,30,12,56,1021.03
2020,11,30,12,57,1021.03
2020,11,30,12,58,1020.89
2020,11,30,12,59,1020.86
2020,11,30,13,00,1021.13
2020,11,30,13,01,1020.79
2020,11,30,13,02,1020.83
2020,11,30,13,03,1021.06
2020,11,30,13,04,1021.00
2020,11,30,13,05,1020.86
2020,11,30,13,06,1021.20
2020,11,30,13,07,1021.00
2020,11,30,13,08,1020.93
2020,11,30,13,09,1021.20
2020,11,30,13,10,1021.30
2020,11,30,13,11,1021.03
2020,11,30,13,12,1021.17
2020,11,30,13,13,1021.21
2020,11,30,13,14,1021.37
2020,11,30,13,15,1021.67
2020,11,30,13,16,1021.44
2020,11,30,13,17,1021.47
2020,11,30,13,18,1021.67
2020,11,30,13,19,1021.61
2020,11,30,13,20,1021.47
2020,11,30,13,21,1021.64
2020,11,30,13,22,1021.71
2020,11,30,13,23,1021.98
2020,11,30,13,24,1021.88
2020,11,30,13,25,1021.94
2020,11,30,13,26,1022.01
2020,11,30,13,27,1022.05
2020,11,30,13,28,1021.94
2020,11,30,13,29,1022.08
2020,11,30,13,30,1022.35
2020,11,30,13,31,1022.25
2020,11,30,13,32,1022.39
2020,11,30,13,33,1022.22
2020,11,30,13,34,1022.32
2020,11,30,13,35,1022.49
2020,11,30,13,36,1022.42
2020,11,30,13,37,1022.45
2020,11,30,13,38,1022.42
2020,11,30,13,39,1022.49
2020,11,30,13,40,1022.49
2020,11,30,13,41,1022.52
2020,11,30,13,42,1022.52
2020,11,30,13,43,1022.55
2020,11,30,13,44,1022.49
2020,11,30,13,45,1022.59
2020,11,30,13,46,1022.49
2020,11,30,13,47,1022.52
2020,11,30,13,48,1022.66
2020,11,30,13,49,1022.49
2020,11,30,13,50,1022.59
2020,11,30,13,51,1022.62
2020,11,30,13,52,1022.62
2020,11,30,13,53,1022.69
2020,11,30,13,54,1022.99
2020,11,30,13,55,1022.96
2020,11,30,13,56,1022.76
2020,11,30,13,57,1022.86
2020,11,30,13,58,1022.93
2020,11,30,13,59,1022.76
2020,11,30,14,00,1022.96
2020,11,30,14,01,1023.06
2020,11,30,14,02,1023.13
2020,11,30,14,03,1023.13
2020,11,30,14,04,1023.13
2020,11,30,14,05,1023.20
2020,11,30,14,06,1023.13
2020,11,30,14,07,1023.27
2020,11,30,14,08,1023.23
2020,11,30,14,09,1023.27
2020,11,30,14,10,1023.27
2020,11,30,14,11,1023.30
2020,11,30,14,12,1023.30
2020,11,30,14,13,1023.37
2020,11,30,14,14,1023.37
2020,11,30,14,15,1023.33
2020,11,30,14,16,1023.47
2020,11,30,14,17,1023.37
2020,11,30,14,18,1023.57
2020,11,30,14,19,1023.43
2020,11,30,14,20,1023.50
2020,11,30,14,21,1023.54
2020,11,30,14,22,1023.57
2020,11,30,14,23,1023.67
2020,11,30,14,24,1023.77
2020,11,30,14,25,1023.77
2020,11,30,14,26,1023.84
2020,11,30,14,27,1023.84
2020,11,30,14,28,1023.88
2020,11,30,14,29,1023.88
2020,11,30,14,30,1023.91
2020,11,30,14,31,1023.94
2020,11,30,14,32,1023.91
2020,11,30,14,33,1024.04
2020,11,30,14,34,1023.94
2020,11,30,14,35,1024.01
2020,11,30,14,36,1024.04
2020,11,30,14,37,1024.15
2020,11,30,14,38,1024.15
2020,11,30,14,39,1024.08
2020,11,30,14,40,1024.25
2020,11,30,14,41,1024.21
2020,11,30,14,42,1024.25
2020,11,30,14,43,1024.21
2020,11,30,14,44,1024.28
2020,11,30,14,45,1024.35
2020,11,30,14,46,1024.25
2020,11,30,14,47,1024.35
2020,11,30,14,48,1024.32
2020,11,30,14,49,1024.42
2020,11,30,14,50,1024.42
2020,11,30,14,51,1024.52
2020,11,30,14,52,1024.48
2020,11,30,14,53,1024.55
2020,11,30,14,54,1024.55
2020,11,30,14,55,1024.62
2020,11,30,14,56,1024.65
2020,11,30,14,57,1024.62
2020,11,30,14,58,1024.59
2020,11,30,14,59,1024.96
2020,11,30,15,00,1024.76
2020,11,30,15,01,1024.82
2020,11,30,15,02,1024.69
2020,11,30,15,03,1024.79
2020,11,30,15,04,1024.92
2020,11,30,15,05,1024.82
2020,11,30,15,06,1024.82
2020,11,30,15,07,1025.03
2020,11,30,15,08,1024.96
2020,11,30,15,09,1024.99
2020,11,30,15,10,1025.06
2020,11,30,15,11,1025.09
2020,11,30,15,12,1025.16
2020,11,30,15,13,1025.13
2020,11,30,15,14,1025.37
2020,11,30,15,15,1025.33
2020,11,30,15,16,1025.43
2020,11,30,15,17,1025.53
2020,11,30,15,18,1025.64
2020,11,30,15,19,1025.50
2020,11,30,15,20,1025.64
2020,11,30,15,21,1025.74
2020,11,30,15,22,1025.81
2020,11,30,15,23,1025.74
2020,11,30,15,24,1025.77
2020,11,30,15,25,1025.77
2020,11,30,15,26,1025.87
2020,11,30,15,27,1025.84
2020,11,30,15,28,1025.87
2020,11,30,15,29,1025.84
2020,11,30,15,30,1025.81
2020,11,30,15,31,1025.74
2020,11,30,15,32,1025.81
2020,11,30,15,33,1025.74
2020,11,30,15,34,1025.91
2020,11,30,15,35,1025.81
2020,11,30,15,36,1025.91
2020,11,30,15,37,1025.91
2020,11,30,15,38,1025.87
2020,11,30,15,39,1025.91
2020,11,30,15,40,1025.94
2020,11,30,15,41,1025.97
2020,11,30,15,42,1025.94
2020,11,30,15,43,1025.97
2020,11,30,15,44,1026.04
2020,11,30,15,45,1025.97
2020,11,30,15,46,1026.14
2020,11,30,15,47,1026.01
2020,11,30,15,48,1026.18
2020,11,30,15,49,1026.18
2020,11,30,15,50,1026.18
2020,11,30,15,51,1026.18
2020,11,30,15,52,1026.31
2020,11,30,15,53,1026.35
2020,11,30,15,54,1026.41
2020,11,30,15,55,1026.45
2020,11,30,15,56,1026.52